Key West, FL

6:51 PM EDT on May 26, 2018 (GMT -0400)
Key West International

Weather History for KEYW - January, 2015

Change the Weather History Date:

Saturday, January 3, 2015

  Actual Average Record
Temperature  
Mean Temperature 80 °F 69 °F  
Max Temperature 82 °F 74 °F 84 °F (1960)
Min Temperature 77 °F 64 °F 45 °F (2008)
Degree Days  
Heating Degree Days 0 1  
Month to date heating degree days 0 3  
Since 1 July heating degree days 6 21  
Cooling Degree Days 15 5  
Month to date cooling degree days 40 17  
Year to date cooling degree days 40 17  
Growing Degree Days 30 (Base 50)    
Moisture  
Dew Point 73 °F    
Average Humidity 81    
Maximum Humidity 88    
Minimum Humidity 74    
Precipitation  
Precipitation 0.00 in 0.06 in 0.71 in (1994)
Month to date precipitation T 0.18  
Year to date precipitation T 0.18  
Snow  
Snow 0.00 in - - ()
Month to date snowfall 0.0  
Since 1 July snowfall 0.0  
Snow Depth 0.00 in    
Sea Level Pressure  
Sea Level Pressure 30.17 in    
Wind  
Wind Speed 16 mph (ESE)    
Max Wind Speed 21 mph    
Max Gust Speed 26 mph    
Visibility 10 miles    
Events      
T = Trace of Precipitation, MM = Missing Value Source: NWS Daily Summary

Daily Weather History Graph

Daily Weather History Graph

Search for Another Location

Airport or City:

Astronomy

Jan. 03, 2015 Rise Set
Actual Time 7:11 AM EST 5:51 PM EST
Civil Twilight 6:46 AM EST 6:16 PM EST
Nautical Twilight 6:18 AM EST 6:44 PM EST
Astronomical Twilight 5:50 AM EST 7:12 PM EST
Moon 4:52 PM EST (1/3) 5:39 AM EST (1/3)
Length of Visible Light 11h 29m
Length of Day
10h 39m
Waxing Gibbous, 98% of the Moon is Illuminated
Jan 3
Waxing Gibbous
Jan 4
Full
Jan 13
Last Quarter
Jan 20
New
Jan 26
First Quarter

Hourly Weather History & Observations

Time (EST) Temp. Heat Index Dew Point Humidity Pressure Visibility Wind Dir Wind Speed Gust Speed Precip Events Conditions
12:53 AM 77.0 °F - 73.0 °F 88% 30.15 in 10.0 mi ESE 13.8 mph - N/A   Scattered Clouds
1:53 AM 78.1 °F - 72.0 °F 81% 30.14 in 10.0 mi ESE 13.8 mph - N/A   Partly Cloudy
2:53 AM 78.1 °F - 72.0 °F 81% 30.14 in 10.0 mi ESE 13.8 mph - N/A   Clear
3:53 AM 78.1 °F - 72.0 °F 81% 30.14 in 10.0 mi ESE 15.0 mph - N/A   Clear
4:53 AM 78.1 °F - 72.0 °F 81% 30.14 in 10.0 mi ESE 13.8 mph - N/A   Partly Cloudy
5:53 AM 78.1 °F - 72.0 °F 81% 30.16 in 10.0 mi ESE 15.0 mph - N/A   Clear
6:53 AM 78.1 °F - 72.0 °F 81% 30.17 in 10.0 mi ESE 16.1 mph - N/A   Partly Cloudy
7:53 AM 78.1 °F - 72.0 °F 81% 30.19 in 10.0 mi ESE 13.8 mph - N/A   Clear
8:53 AM 79.0 °F - 72.0 °F 79% 30.21 in 10.0 mi ESE 16.1 mph - N/A   Partly Cloudy
9:53 AM 80.1 °F 83.8 °F 72.0 °F 76% 30.22 in 10.0 mi ESE 16.1 mph - N/A   Clear
10:53 AM 81.0 °F 85.8 °F 73.0 °F 77% 30.21 in 10.0 mi ESE 15.0 mph 23.0 mph N/A   Clear
11:53 AM 81.0 °F 85.8 °F 73.0 °F 77% 30.19 in 10.0 mi ESE 16.1 mph - N/A   Clear
12:53 PM 81.0 °F 86.2 °F 73.9 °F 79% 30.16 in 10.0 mi ESE 16.1 mph - N/A   Clear
1:53 PM 82.0 °F 87.4 °F 73.0 °F 74% 30.14 in 10.0 mi ESE 17.3 mph - N/A   Partly Cloudy
2:53 PM 81.0 °F 85.8 °F 73.0 °F 77% 30.14 in 10.0 mi ESE 16.1 mph - N/A   Clear
3:53 PM 80.1 °F 84.2 °F 73.0 °F 79% 30.14 in 10.0 mi ESE 17.3 mph - N/A   Clear
4:53 PM 80.1 °F 84.2 °F 73.0 °F 79% 30.16 in 10.0 mi ESE 12.7 mph - N/A   Partly Cloudy
5:53 PM 79.0 °F - 73.0 °F 82% 30.16 in 10.0 mi ESE 16.1 mph 21.9 mph N/A   Clear
6:53 PM 78.1 °F - 73.0 °F 84% 30.17 in 10.0 mi ESE 13.8 mph 23.0 mph N/A   Clear
7:53 PM 78.1 °F - 73.0 °F 84% 30.18 in 10.0 mi ESE 15.0 mph - N/A   Partly Cloudy
8:53 PM 78.1 °F - 73.0 °F 84% 30.19 in 10.0 mi ESE 17.3 mph - N/A   Partly Cloudy
9:53 PM 78.1 °F - 73.0 °F 84% 30.19 in 10.0 mi ESE 19.6 mph 25.3 mph N/A   Scattered Clouds
10:29 PM 78.1 °F - 73.0 °F 84% 30.19 in 10.0 mi ESE 18.4 mph - N/A   Mostly Cloudy
10:43 PM 78.1 °F - 73.0 °F 84% 30.19 in 10.0 mi ESE 16.1 mph 25.3 mph N/A   Scattered Clouds
10:53 PM 78.1 °F - 73.0 °F 84% 30.19 in 10.0 mi ESE 18.4 mph - N/A   Partly Cloudy
11:53 PM 78.8 °F - 71.6 °F 78% 30.18 in 10.0 mi ESE 17.3 mph - N/A   Partly Cloudy